Weather History for Milton, FL

Change the Weather History Date:

Wednesday, March 27, 2013

  Actual Average (KNSE) Record (KNSE)
Temperature  
Mean Temperature 44 °F -  
Max Temperature 62 °F 71 °F 88 °F (2011)
Min Temperature 28 °F 50 °F 28 °F (2013)
Degree Days  
Heating Degree Days 20    
Moisture  
Dew Point 26 °F    
Average Humidity 52    
Maximum Humidity 82    
Minimum Humidity 23    
Precipitation  
Precipitation 0.00 in - - ()
Sea Level Pressure  
Sea Level Pressure 30.32 in    
Wind  
Wind Speed 6 mph (North)    
Max Wind Speed 10 mph    
Max Gust Speed -    
Visibility 10 miles    
Events      
Averages and records for this station are not official NWS values.
T = Trace of Precipitation, MM = Missing Value Source: NWS Daily Summary

Daily Weather History Graph

Daily Weather History Graph

Search for Another Location

Airport:

Trip Planner

Search our weather history database for the weather conditions in past years. The results will help you decide how hot, cold, wet, or windy it might be!

Date:

Astronomy

Mar. 27, 2013 Rise Set
Actual Time 6:42 AM CDT 7:04 PM CDT
Civil Twilight 6:18 AM CDT 7:28 PM CDT
Nautical Twilight 5:50 AM CDT 7:56 PM CDT
Astronomical Twilight 5:22 AM CDT 8:25 PM CDT
Moon 7:41 PM CDT (3/27) 6:37 AM CDT (3/27)
Length of Visible Light 13h 09m
Length of Day
12h 21m
Full, 100% of the Moon is Illuminated
Mar 27
Full
Apr 2
Last Quarter
Apr 10
New
Apr 18
First Quarter
Apr 25
Full

Hourly Weather History & Observations

Time (CDT) Temp. Windchill Dew Point Humidity Pressure Visibility Wind Dir Wind Speed Gust Speed Precip Events Conditions
12:56 AM 37.9 °F 32.7 °F 25.0 °F 60% 30.34 in 10.0 mi North 6.9 mph - N/A   Clear
1:56 AM 37.0 °F 32.4 °F 25.0 °F 62% 30.33 in 10.0 mi North 5.8 mph - N/A   Clear
2:56 AM 33.1 °F 30.0 °F 25.0 °F 72% 30.32 in 10.0 mi North 3.5 mph - N/A   Clear
3:56 AM 30.0 °F 26.5 °F 25.0 °F 82% 30.32 in 10.0 mi NNW 3.5 mph - N/A   Clear
4:56 AM 30.0 °F 24.1 °F 25.0 °F 82% 30.32 in 10.0 mi NNW 5.8 mph - N/A   Clear
5:56 AM 32.0 °F 26.4 °F 24.1 °F 73% 30.34 in 10.0 mi North 5.8 mph - N/A   Clear
6:56 AM 28.0 °F 24.2 °F 23.0 °F 81% 30.38 in 10.0 mi NW 3.5 mph - N/A   Clear
7:56 AM 37.9 °F 32.7 °F 26.1 °F 62% 30.38 in 10.0 mi NNE 6.9 mph - N/A   Clear
8:56 AM 44.1 °F 38.6 °F 24.1 °F 45% 30.40 in 10.0 mi NE 10.4 mph - N/A   Clear
9:56 AM 46.9 °F - 23.0 °F 39% 30.40 in 10.0 mi NE 8.1 mph - N/A   Clear
10:56 AM 50.0 °F - 23.0 °F 35% 30.40 in 10.0 mi NNW 8.1 mph - N/A   Clear
11:56 AM 52.0 °F - 23.0 °F 32% 30.38 in 10.0 mi North 6.9 mph - N/A   Clear
12:56 PM 55.0 °F - 23.0 °F 29% 30.35 in 10.0 mi North 6.9 mph - N/A   Clear
1:56 PM 59.0 °F - 24.1 °F 26% 30.32 in 10.0 mi NNE 6.9 mph - N/A   Clear
2:56 PM 59.0 °F - 21.9 °F 24% 30.29 in 10.0 mi WNW 6.9 mph - N/A   Clear
3:56 PM 61.0 °F - 23.0 °F 23% 30.27 in 10.0 mi WNW 6.9 mph - N/A   Clear
4:56 PM 61.0 °F - 23.0 °F 23% 30.26 in 10.0 mi NW 9.2 mph - N/A   Clear
5:56 PM 61.0 °F - 23.0 °F 23% 30.25 in 10.0 mi NNW 4.6 mph - N/A   Clear
6:56 PM 55.9 °F - 24.1 °F 29% 30.27 in 10.0 mi Calm Calm - N/A   Clear
7:56 PM 50.0 °F - 37.0 °F 61% 30.28 in 10.0 mi South 4.6 mph - N/A   Clear
8:56 PM 46.9 °F - 36.0 °F 66% 30.27 in 10.0 mi Calm Calm - N/A   Clear
9:56 PM 43.0 °F - 34.0 °F 71% 30.28 in 10.0 mi Calm Calm - N/A   Clear
10:56 PM 41.0 °F - 32.0 °F 70% 30.28 in 10.0 mi Calm Calm - N/A   Clear
11:56 PM 37.0 °F - 32.0 °F 82% 30.28 in 10.0 mi Calm Calm - N/A   Clear